| time (UTC) | temp F | wind direction | speed knots | gust knots | rain 1hr in | rain 24hr in | rain mn in | humidity % | barometer mb |
| 20260505091507 | 51 | 197 | 5.2 | 7.8 | 0.00 | 0.00 | 0.00 | 61 | 1009.7 |
| 20260505090507 | 51 | 205 | 5.2 | 8.7 | 0.00 | 0.00 | 0.00 | 47 | 1009.7 |
| 20260505090007 | 51 | 197 | 6.1 | 8.7 | 0.00 | 0.00 | 0.00 | 39 | 1009.8 |
| 20260505085507 | 51 | 211 | 5.2 | 7.8 | 0.00 | 0.00 | 0.00 | 24 | 1009.8 |
| 20260505085008 | 51 | 210 | 5.2 | 7.8 | 0.00 | 0.00 | 0.00 | 21 | 1009.8 |
| 20260505084507 | 51 | 200 | 5.2 | 8.7 | 0.00 | 0.00 | 0.00 | 33 | 1009.8 |
| 20260505084007 | 52 | 200 | 4.3 | 7.0 | 0.00 | 0.00 | 0.00 | 27 | 1009.7 |
| 20260505083507 | 51 | 205 | 5.2 | 8.7 | 0.00 | 0.00 | 0.00 | 22 | 1009.6 |
| 20260505082508 | 51 | 189 | 5.2 | 7.8 | 0.00 | 0.00 | 0.00 | 23 | 1009.6 |
| 20260505082008 | 51 | 196 | 5.2 | 7.0 | 0.00 | 0.00 | 0.00 | 27 | 1009.7 |
| 20260505081508 | 51 | 195 | 5.2 | 8.7 | 0.00 | 0.00 | 0.00 | 23 | 1009.7 |
| 20260505081007 | 51 | 201 | 3.5 | 6.1 | 0.00 | 0.00 | 0.00 | 14 | 1009.7 |
| 20260505080508 | 51 | 197 | 5.2 | 7.0 | 0.00 | 0.00 | 0.00 | 8 | 1009.8 |
| 20260505080007 | 51 | 198 | 4.3 | 7.0 | 0.00 | 0.00 | 0.00 | 5 | 1009.8 |
| 20260505075508 | 51 | 185 | 4.3 | 7.0 | 0.00 | 0.00 | 0.00 | 2 | 1009.8 |
| 20260505075006 | 51 | 197 | 4.3 | 7.0 | 0.00 | 0.00 | 0.00 | 2 | 1009.9 |
| 20260505074008 | 51 | 198 | 5.2 | 7.8 | 0.00 | 0.00 | 0.00 | 2 | 1009.8 |
| 20260505073508 | 52 | 195 | 4.3 | 7.0 | 0.00 | 0.00 | 0.00 | 2 | 1009.8 |
| 20260505072009 | 52 | 196 | 5.2 | 7.8 | 0.00 | 0.00 | 0.00 | 2 | 1009.9 |
| 20260505071507 | 52 | 204 | 2.6 | 7.0 | 0.00 | 0.00 | 0.00 | 2 | 1009.9 |
| 20260505071007 | 51 | 196 | 5.2 | 7.8 | 0.00 | 0.00 | 0.00 | 2 | 1009.9 |
| 20260505070506 | 52 | 197 | 4.3 | 7.0 | 0.00 | 0.00 | 0.00 | 2 | 1009.8 |
| 20260505070006 | 52 | 197 | 4.3 | 7.0 | 0.00 | 0.00 | 0.00 | 2 | 1009.9 |
| 20260505065506 | 52 | 203 | 3.5 | 7.0 | 0.00 | 0.00 | 0.00 | 2 | 1009.9 |
| 20260505065006 | 52 | 210 | 3.5 | 6.1 | 0.00 | 0.00 | 0.00 | 2 | 1009.9 |
| 20260505064508 | 52 | 189 | 5.2 | 7.0 | 0.00 | 0.00 | 0.00 | 2 | 1010.0 |
| 20260505064006 | 52 | 203 | 4.3 | 7.0 | 0.00 | 0.00 | 0.00 | 2 | 1009.9 |
| 20260505063508 | 52 | 196 | 3.5 | 7.0 | 0.00 | 0.00 | 0.00 | 2 | 1009.9 |
| 20260505063007 | 52 | 198 | 4.3 | 7.8 | 0.00 | 0.00 | 0.00 | 2 | 1009.9 |
| 20260505062006 | 52 | 197 | 5.2 | 8.7 | 0.00 | 0.00 | 0.00 | 2 | 1009.9 |
| 20260505061506 | 53 | 205 | 4.3 | 7.8 | 0.00 | 0.00 | 0.00 | 2 | 1009.9 |
| 20260505060506 | 53 | 203 | 5.2 | 10.4 | 0.00 | 0.00 | 0.00 | 2 | 1010.0 |
| 20260505060006 | 52 | 202 | 5.2 | 7.8 | 0.00 | 0.00 | 0.00 | 2 | 1010.0 |
| 20260505055506 | 53 | 203 | 5.2 | 8.7 | 0.00 | 0.00 | 0.00 | 2 | 1010.0 |
| 20260505054006 | 53 | 196 | 5.2 | 8.7 | 0.00 | 0.00 | 0.00 | 2 | 1010.0 |
| 20260505053506 | 53 | 201 | 5.2 | 8.7 | 0.00 | 0.00 | 0.00 | 2 | 1010.0 |
| 20260505053006 | 53 | 204 | 6.1 | 8.7 | 0.00 | 0.00 | 0.00 | 2 | 1009.9 |
| 20260505052506 | 53 | 211 | 6.1 | 11.3 | 0.00 | 0.00 | 0.00 | 2 | 1009.9 |
| 20260505052006 | 53 | 214 | 6.1 | 10.4 | 0.00 | 0.00 | 0.00 | 2 | 1009.9 |
| 20260505051506 | 53 | 200 | 6.1 | 8.7 | 0.00 | 0.00 | 0.00 | 2 | 1010.0 |
| 20260505051006 | 53 | 198 | 5.2 | 10.4 | 0.00 | 0.00 | 0.00 | 2 | 1010.0 |
| 20260505050506 | 53 | 194 | 5.2 | 11.3 | 0.00 | 0.00 | 0.00 | 2 | 1010.0 |
| 20260505041506 | 53 | 193 | 6.1 | 10.4 | 0.00 | 0.00 | 0.00 | 2 | 1010.1 |
| 20260505041006 | 53 | 202 | 6.1 | 8.7 | 0.00 | 0.00 | 0.00 | 2 | 1010.1 |
| 20260505040507 | 53 | 206 | 6.1 | 11.3 | 0.00 | 0.00 | 0.00 | 2 | 1010.1 |
| 20260505040006 | 54 | 206 | 6.1 | 10.4 | 0.00 | 0.00 | 0.00 | 2 | 1010.1 |
| 20260505035506 | 53 | 197 | 7.0 | 11.3 | 0.00 | 0.00 | 0.00 | 2 | 1010.0 |
| 20260505035006 | 53 | 200 | 7.0 | 11.3 | 0.00 | 0.00 | 0.00 | 2 | 1010.1 |
| 20260505034506 | 54 | 205 | 6.1 | 11.3 | 0.00 | 0.00 | 0.00 | 2 | 1010.1 |
| 20260505034007 | 54 | 193 | 6.1 | 10.4 | 0.00 | 0.00 | 0.00 | 2 | 1010.1 |
| 20260505032507 | 54 | 199 | 6.1 | 11.3 | 0.00 | 0.00 | 0.00 | 2 | 1010.0 |
| 20260505032006 | 54 | 199 | 7.0 | 12.2 | 0.00 | 0.00 | 0.00 | 2 | 1010.0 |
| 20260505031505 | 54 | 196 | 6.1 | 11.3 | 0.00 | 0.00 | 0.00 | 2 | 1010.1 |
| 20260505030506 | 54 | 209 | 6.1 | 11.3 | 0.00 | 0.00 | 0.00 | 2 | 1010.3 |
| 20260505025506 | 54 | 207 | 7.8 | 11.3 | 0.00 | 0.00 | 0.00 | 2 | 1010.2 |
| 20260505025006 | 54 | 204 | 7.0 | 12.2 | 0.00 | 0.00 | 0.00 | 2 | 1010.2 |
| 20260505024506 | 55 | 193 | 6.1 | 11.3 | 0.00 | 0.00 | 0.00 | 2 | 1010.2 |
| 20260505024006 | 55 | 200 | 7.0 | 12.2 | 0.00 | 0.00 | 0.00 | 2 | 1010.1 |
| 20260505023506 | 55 | 193 | 7.0 | 13.0 | 0.00 | 0.00 | 0.00 | 2 | 1010.2 |
| 20260505022506 | 55 | 198 | 5.2 | 12.2 | 0.00 | 0.00 | 0.00 | 2 | 1010.1 |
| 20260505022005 | 55 | 198 | 6.1 | 13.0 | 0.00 | 0.00 | 0.00 | 2 | 1010.2 |
| 20260505020005 | 56 | 199 | 7.0 | 11.3 | 0.00 | 0.00 | 0.00 | 2 | 1010.1 |
| 20260505015506 | 56 | 213 | 6.1 | 13.0 | 0.00 | 0.00 | 0.00 | 2 | 1010.1 |
| 20260505015005 | 56 | 205 | 7.0 | 12.2 | 0.00 | 0.00 | 0.00 | 2 | 1010.1 |
| 20260505014506 | 56 | 202 | 7.8 | 12.2 | 0.00 | 0.00 | 0.00 | 2 | 1010.1 |
| 20260505014006 | 56 | 210 | 6.1 | 8.7 | 0.00 | 0.00 | 0.00 | 2 | 1010.0 |
| 20260505013506 | 56 | 206 | 8.7 | 13.0 | 0.00 | 0.00 | 0.00 | 2 | 1010.0 |
| 20260505013006 | 56 | 216 | 10.4 | 14.8 | 0.00 | 0.00 | 0.00 | 2 | 1010.0 |
| 20260505012506 | 56 | 196 | 6.1 | 11.3 | 0.00 | 0.00 | 0.00 | 2 | 1009.9 |
| 20260505012006 | 56 | 197 | 6.1 | 13.0 | 0.00 | 0.00 | 0.00 | 2 | 1009.9 |
| 20260505011510 | 57 | 193 | 6.1 | 13.0 | 0.00 | 0.00 | 0.00 | 2 | 1009.7 |
| 20260505010006 | 57 | 201 | 5.2 | 14.8 | 0.00 | 0.00 | 0.00 | 2 | 1009.5 |
| 20260505005506 | 57 | 207 | 6.1 | 15.6 | 0.00 | 0.00 | 0.00 | 2 | 1009.5 |
| 20260505005005 | 57 | 212 | 6.1 | 12.2 | 0.00 | 0.00 | 0.00 | 2 | 1009.3 |
| 20260505004506 | 57 | 206 | 7.8 | 13.0 | 0.00 | 0.00 | 0.00 | 2 | 1009.2 |
| 20260505004005 | 57 | 211 | 7.0 | 13.0 | 0.00 | 0.00 | 0.00 | 2 | 1009.1 |
| 20260505003505 | 58 | 203 | 6.1 | 14.8 | 0.00 | 0.00 | 0.00 | 2 | 1008.9 |
| 20260505003006 | 58 | 208 | 8.7 | 17.4 | 0.00 | 0.00 | 0.00 | 2 | 1008.8 |
| 20260505002006 | 58 | 194 | 9.6 | 18.2 | 0.00 | 0.00 | 0.00 | 2 | 1008.6 |
| 20260505001005 | 58 | 207 | 7.8 | 12.2 | 0.00 | 0.00 | 0.00 | 2 | 1008.4 |
| 20260505000505 | 59 | 201 | 8.7 | 15.6 | 0.00 | 0.00 | 0.00 | 2 | 1008.3 |
| 20260505000006 | 59 | 202 | 7.8 | 11.3 | 0.00 | 0.00 | 0.00 | 2 | 1008.3 |
| 20260504235504 | 59 | 200 | 9.6 | 15.6 | 0.00 | 0.00 | 0.00 | 2 | 1008.2 |
| 20260504235005 | 59 | 197 | 8.7 | 14.8 | 0.00 | 0.00 | 0.00 | 2 | 1008.1 |
| 20260504234504 | 60 | 204 | 7.8 | 15.6 | 0.00 | 0.00 | 0.00 | 2 | 1008.2 |
| 20260504234004 | 60 | 202 | 8.7 | 17.4 | 0.00 | 0.00 | 0.00 | 2 | 1008.1 |
| 20260504233505 | 61 | 197 | 11.3 | 14.8 | 0.00 | 0.00 | 0.00 | 2 | 1008.0 |
| 20260504233005 | 61 | 214 | 6.1 | 14.8 | 0.00 | 0.00 | 0.00 | 2 | 1008.0 |
| 20260504232505 | 61 | 201 | 6.1 | 13.0 | 0.00 | 0.00 | 0.00 | 2 | 1007.8 |
| 20260504231006 | 62 | 202 | 6.1 | 13.9 | 0.00 | 0.00 | 0.00 | 2 | 1007.5 |
| 20260504230504 | 62 | 196 | 10.4 | 15.6 | 0.00 | 0.00 | 0.00 | 2 | 1007.4 |
| 20260504225505 | 63 | 198 | 8.7 | 15.6 | 0.00 | 0.00 | 0.00 | 2 | 1007.2 |
| 20260504225005 | 63 | 196 | 7.8 | 17.4 | 0.00 | 0.00 | 0.00 | 2 | 1007.2 |
| 20260504224504 | 63 | 198 | 10.4 | 17.4 | 0.00 | 0.00 | 0.00 | 2 | 1007.1 |
| 20260504224005 | 64 | 207 | 11.3 | 20.0 | 0.00 | 0.00 | 0.00 | 2 | 1007.0 |
| 20260504223004 | 64 | 196 | 10.4 | 18.2 | 0.00 | 0.00 | 0.00 | 2 | 1006.9 |
| 20260504222504 | 64 | 204 | 13.0 | 25.2 | 0.00 | 0.00 | 0.00 | 2 | 1006.9 |
| 20260504222004 | 65 | 213 | 8.7 | 19.1 | 0.00 | 0.00 | 0.00 | 2 | 1006.9 |
| 20260504221505 | 64 | 209 | 12.2 | 20.0 | 0.00 | 0.00 | 0.00 | 2 | 1006.9 |
| 20260504221004 | 65 | 219 | 10.4 | 20.0 | 0.00 | 0.00 | 0.00 | 2 | 1006.7 |
| 20260504220505 | 65 | 193 | 12.2 | 20.9 | 0.00 | 0.00 | 0.00 | 2 | 1006.7 |
| 20260504220004 | 65 | 204 | 10.4 | 24.3 | 0.00 | 0.00 | 0.00 | 2 | 1006.8 |
| 20260504215504 | 64 | 209 | 12.2 | 22.6 | 0.00 | 0.00 | 0.00 | 2 | 1006.9 |
| 20260504214504 | 65 | 198 | 11.3 | 21.7 | 0.00 | 0.00 | 0.00 | 2 | 1006.8 |
| 20260504214004 | 65 | 197 | 14.8 | 22.6 | 0.00 | 0.00 | 0.00 | 2 | 1006.8 |
| 20260504213504 | 65 | 199 | 11.3 | 22.6 | 0.00 | 0.00 | 0.00 | 2 | 1006.7 |
| 20260504213004 | 65 | 199 | 12.2 | 26.1 | 0.00 | 0.00 | 0.00 | 2 | 1006.6 |
| 20260504212504 | 65 | 194 | 12.2 | 20.0 | 0.00 | 0.00 | 0.00 | 2 | 1006.7 |
| 20260504212004 | 66 | 217 | 7.8 | 20.9 | 0.00 | 0.00 | 0.00 | 2 | 1006.6 |
| 20260504211504 | 66 | 195 | 8.7 | 21.7 | 0.00 | 0.00 | 0.00 | 2 | 1006.6 |
| 20260504211004 | 66 | 193 | 13.0 | 24.3 | 0.00 | 0.00 | 0.00 | 2 | 1006.5 |
| 20260504210504 | 66 | 195 | 10.4 | 20.9 | 0.00 | 0.00 | 0.00 | 2 | 1006.4 |
| 20260504210005 | 66 | 189 | 13.9 | 20.0 | 0.00 | 0.00 | 0.00 | 2 | 1006.5 |
| 20260504205004 | 66 | 201 | 11.3 | 22.6 | 0.00 | 0.00 | 0.00 | 2 | 1006.5 |
| 20260504204504 | 67 | 201 | 8.7 | 15.6 | 0.00 | 0.00 | 0.00 | 2 | 1006.4 |
| 20260504204004 | 67 | 201 | 10.4 | 17.4 | 0.00 | 0.00 | 0.00 | 100 | 1006.5 |
| 20260504203504 | 67 | 211 | 11.3 | 18.2 | 0.00 | 0.00 | 0.00 | 100 | 1006.5 |
| 20260504202504 | 67 | 213 | 9.6 | 21.7 | 0.00 | 0.00 | 0.00 | 2 | 1006.4 |
| 20260504202005 | 67 | 198 | 11.3 | 21.7 | 0.00 | 0.00 | 0.00 | 2 | 1006.5 |
| 20260504201504 | 67 | 208 | 11.3 | 21.7 | 0.00 | 0.00 | 0.00 | 2 | 1006.5 |
| 20260504201004 | 68 | 213 | 9.6 | 17.4 | 0.00 | 0.00 | 0.00 | 100 | 1006.4 |
| 20260504200504 | 69 | 209 | 7.8 | 24.3 | 0.00 | 0.00 | 0.00 | 100 | 1006.3 |
| 20260504200004 | 68 | 200 | 11.3 | 22.6 | 0.00 | 0.00 | 0.00 | 100 | 1006.5 |
| 20260504195503 | 69 | 199 | 11.3 | 21.7 | 0.00 | 0.00 | 0.00 | 100 | 1006.4 |
| 20260504195004 | 69 | 195 | 9.6 | 17.4 | 0.00 | 0.00 | 0.00 | 100 | 1006.4 |
| 20260504194505 | 69 | 205 | 9.6 | 17.4 | 0.00 | 0.00 | 0.00 | 100 | 1006.3 |
| 20260504193504 | 72 | 196 | 1.7 | 10.4 | 0.00 | 0.00 | 0.00 | 100 | 1006.3 |
| 20260504193004 | 70 | 233 | 7.8 | 20.9 | 0.00 | 0.00 | 0.00 | 100 | 1006.4 |
| 20260504192504 | 70 | 214 | 8.7 | 22.6 | 0.00 | 0.00 | 0.00 | 100 | 1006.5 |
| 20260504192004 | 70 | 246 | 8.7 | 20.9 | 0.00 | 0.00 | 0.00 | 100 | 1006.3 |
| 20260504191504 | 71 | 250 | 5.2 | 17.4 | 0.00 | 0.00 | 0.00 | 100 | 1006.4 |
| 20260504191004 | 71 | 235 | 6.1 | 14.8 | 0.00 | 0.00 | 0.00 | 100 | 1006.4 |
| 20260504190504 | 70 | 243 | 8.7 | 20.9 | 0.00 | 0.00 | 0.00 | 2 | 1006.6 |
| 20260504190004 | 69 | 222 | 10.4 | 25.2 | 0.00 | 0.00 | 0.00 | 2 | 1006.5 |
| 20260504185504 | 70 | 225 | 8.7 | 19.1 | 0.00 | 0.00 | 0.00 | 2 | 1006.5 |
| 20260504185004 | 69 | 227 | 9.6 | 18.2 | 0.00 | 0.00 | 0.00 | 2 | 1006.6 |
| 20260504184503 | 69 | 234 | 8.7 | 20.0 | 0.00 | 0.00 | 0.00 | 2 | 1006.8 |
| 20260504184004 | 70 | 200 | 7.0 | 20.0 | 0.00 | 0.00 | 0.00 | 89 | 1006.6 |
| 20260504183004 | 71 | 243 | 4.3 | 11.3 | 0.00 | 0.00 | 0.00 | 2 | 1006.7 |
| 20260504182504 | 69 | 228 | 9.6 | 17.4 | 0.00 | 0.00 | 0.00 | 2 | 1006.8 |
| 20260504182004 | 69 | 206 | 11.3 | 24.3 | 0.00 | 0.00 | 0.00 | 100 | 1006.9 |
| 20260504181503 | 69 | 205 | 8.7 | 19.1 | 0.00 | 0.00 | 0.00 | 2 | 1006.8 |
| 20260504181004 | 69 | 204 | 10.4 | 18.2 | 0.00 | 0.00 | 0.00 | 2 | 1006.9 |
| 20260504180504 | 68 | 206 | 8.7 | 21.7 | 0.00 | 0.00 | 0.00 | 2 | 1007.0 |
| 20260504180004 | 69 | 222 | 8.7 | 21.7 | 0.00 | 0.00 | 0.00 | 100 | 1007.0 |
| 20260504175504 | 69 | 217 | 8.7 | 17.4 | 0.00 | 0.00 | 0.00 | 100 | 1007.0 |
| 20260504175004 | 69 | 230 | 10.4 | 19.1 | 0.00 | 0.00 | 0.00 | 2 | 1007.1 |
| 20260504174504 | 69 | 198 | 8.7 | 18.2 | 0.00 | 0.00 | 0.00 | 100 | 1006.9 |
| 20260504174004 | 69 | 235 | 10.4 | 18.2 | 0.00 | 0.00 | 0.00 | 100 | 1006.9 |
| 20260504173503 | 68 | 208 | 11.3 | 17.4 | 0.00 | 0.00 | 0.00 | 100 | 1006.8 |
| 20260504173004 | 69 | 238 | 7.8 | 22.6 | 0.00 | 0.00 | 0.00 | 100 | 1007.0 |
| 20260504172504 | 68 | 204 | 14.8 | 26.9 | 0.00 | 0.00 | 0.00 | 100 | 1006.8 |
| 20260504172004 | 70 | 211 | 4.3 | 13.0 | 0.00 | 0.00 | 0.00 | 2 | 1006.8 |
| 20260504171504 | 69 | 219 | 7.0 | 18.2 | 0.00 | 0.00 | 0.00 | 2 | 1006.7 |
| 20260504171003 | 69 | 253 | 7.8 | 21.7 | 0.00 | 0.00 | 0.00 | 2 | 1006.9 |
| 20260504151003 | 66 | 225 | 8.7 | 19.1 | 0.00 | 0.00 | 0.00 | 100 | 1008.5 |
| 20260504141004 | 63 | 208 | 6.1 | 14.8 | 0.00 | 0.00 | 0.00 | 2 | 1009.0 |
| 20260504140505 | 64 | 238 | 4.3 | 10.4 | 0.00 | 0.00 | 0.00 | 2 | 1009.1 |
| 20260504130504 | 60 | 204 | 2.6 | 7.0 | 0.00 | 0.00 | 0.00 | 2 | 1009.7 |